Regional Weather Roundup
Issued by NWS

Home | Current Version | Previous Version | Text Only | Print | Product List | Glossary On
Versions: 1 2 3 4 5 6 7 8 9 10 11 12 13 14 15 16 17 18 19 20 21 22 23 24 25 26 27 28 29 30 31 32 33 34 35 36 37 38 39 40 41 42 43 44 45 46 47 48 49 50
000
ASUS43 KLMK 020102
RWRKY
KENTUCKY REGIONAL WEATHER ROUNDUP
NATIONAL WEATHER SERVICE LOUISVILLE KY
900 PM EDT SUN MAY 01 2016

NOTE "FAIR" INDICATES FEW OR NO CLOUDS BELOW 12,000 FEET
WITH NO SIGNIFICANT WEATHER AND/OR OBSTRUCTIONS TO VISIBILITY.

KYZ001>023-026-027-061>063-070>075-020200-
WESTERN AND SOUTH CENTRAL KENTUCKY

CITY           SKY/WX    TMP DP  RH WIND       PRES   REMARKS
PADUCAH        CLEAR     73  64  73 SW5       29.90R
HENDERSON      CLEAR     72  63  73 S10       29.86S
OWENSBORO      CLEAR     69  61  76 SW6       29.89R
HOPKINSVILLE   NOT AVBL
BOWLING GREEN  MOCLDY    73  61  65 W5        29.92R
GLASGOW        NOT AVBL
$$

KYZ024-025-028>034-038-045-046-053-020200-
NORTH CENTRAL KENTUCKY

CITY           SKY/WX    TMP DP  RH WIND       PRES   REMARKS
LOUISVILLE/SDF MOCLDY    69  65  86 E3        29.88F
LOUISVILLE/LOU PTCLDY    69  64  84 CALM      29.89F
FORT KNOX      PTCLDY    68  64  88 VRB1      29.89R
$$

KYZ035>037-039>044-047>052-055>060-089>105-020200-
NORTHEAST KENTUCKY

CITY           SKY/WX    TMP DP  RH WIND       PRES   REMARKS
LEXINGTON      PTCLDY    64  61  90 SE8       29.93S
COVINGTON      MOCLDY    64  61  90 SW5       29.89S
FRANKFORT      CLEAR     65  60  84 CALM      29.91S
$$

KYZ054-064>069-076>088-106>120-020200-
SOUTHEAST KENTUCKY

CITY           SKY/WX    TMP DP  RH WIND       PRES   REMARKS
JACKSON        CLOUDY    62  58  86 CALM      29.97R
LONDON         CLOUDY    74  60  61 W8        29.96R
SOMERSET       NOT AVBL
MIDDLESBORO    NOT AVBL
MONTICELLO     CLOUDY    72  64  76 W10       29.97R
$$




USA.gov is the U.S. government's official web portal to all federal, state and local government web resources and services.